Find STARLINK-37516

NORAD ID: 68915 Constellation: starlink operational
LEOCIRCULARRETROGRADE

Live Position

Loading 3D Globe...

About STARLINK-37516

Description loading...

Upcoming Passes

Passes for default location (London). Set your location on the main map for personalized predictions.

Altitude History

Loading altitude history...

Two-Line Element Set

1 68915U 26097W 26125.50001156 -.01961480 11181-2 -44405-2 0 9991
2 68915 97.2869 320.4993 0001462 75.9316 168.6487 15.97719864 2061
Epoch: May 5, 2026 • Age: 6 hours